Location: Bullenkuhlen
(53.7689°N, 9.7495°E)
Time: 00:26:00
(UTC+00:00)

Meteor 2-3 Rocket - Pass Details

Date: 09 April 2020
Orbit: 842 x 885 km, 81.2° (Epoch: 04 June)

Event Time Altitude Azimuth Distance (km) Brightness Sun altitude
Rises 21:46:00 0° 343° (NNW) 3,486 8.2 -25.0°
Reaches altitude 10° 21:48:31 10° 339° (NNW) 2,537 7.2 -25.1°
Maximum altitude 21:54:05 52° 265° (W) 1,074 4.3 -25.5°
Enters shadow 21:55:25 43° 223° (SW) 1,206 4.3 -25.5°
